{"data":{"norad_id":68003,"intl_designator":"2026-039T","name":"STARLINK-36862","alt_names":[],"object_type":"PAYLOAD","status":"ACTIVE","operator":null,"country":"US","launch_date":"2026-02-27","launch_site_code":"AFETR","launch_vehicle":null,"mission":null,"orbit_class":"UNKNOWN","rcs_meters":null,"size_class":null,"mass_kg":null,"dimensions":null,"purposes":["comms"],"wikipedia_slug":null,"has_3d_model":false,"image_url":null,"decayed_at":null,"tle_current":{"epoch":"2026-05-24T21:09:04.948992Z","epoch_age_seconds":79132,"freshness":"FRESH","line1":"1 68003U 26039T   26144.88130728  .00017623  00000+0  64811-3 0  9992","line2":"2 68003  43.0012 338.8397 0001444 272.6036  87.4650 15.27594253 13354","mean_motion":15.27594253,"eccentricity":0.0001444,"inclination_deg":43.0012,"raan_deg":338.8397,"arg_perigee_deg":272.6036,"mean_anomaly_deg":87.465,"bstar":0.00064811,"rev_number":1335,"period_min":94.265869171216,"perigee_km":482.01566865248,"apogee_km":483.99716687153,"semimajor_km":6861.143417762,"source":"CELESTRAK","updated_at":"2026-05-25T13:38:21.782517Z"}}}